Regional Weather Roundup
Issued by NWS

Home | Current Version | Previous Version | Text Only | Print | Product List | Glossary Off
Versions: 1 2 3 4 5 6 7 8 9 10 11 12 13 14 15 16 17 18 19 20 21 22 23 24 25 26 27 28 29 30 31 32 33 34 35 36 37 38 39 40 41 42 43 44 45 46 47 48 49 50

000
ASUS43 KFSD 260710
RWRSD

WEATHER ROUNDUP FOR SOUTH DAKOTA
NATIONAL WEATHER SERVICE SIOUX FALLS SD
100 AM CST MON JAN 26 2015

NOTE: "FAIR" INDICATES FEW OR NO CLOUDS BELOW 12,000 FEET WITH NO
SIGNIFICANT WEATHER AND/OR OBSTRUCTIONS TO VISIBILITY.


SDZ001>005-009-010-012>017-260800-
NORTHWEST AND NORTH CENTRAL SOUTH DAKOTA

CITY           SKY/WX    TMP DP  RH WIND       PRES   REMARKS
BUFFALO          N/A     39  32  76 W15       29.88R
FAITH            N/A     44  32  62 W17       29.87S
MOBRIDGE       PTCLDY    35  29  78 CALM      29.80S
$$

SDZ012>016-024>037-041>051-057-063-072>074-260800-
SOUTHWEST AND SOUTH CENTRAL SOUTH DAKOTA

CITY           SKY/WX    TMP DP  RH WIND       PRES   REMARKS
RAPID CTY ARPT MOCLDY    47  31  53 NW9       29.95S
PIERRE         CLEAR     34  27  75 SW8       29.86F WCI  27
CUSTER         MOCLDY    45  27  49 W12       30.05R
ELLSWORTH AFB  PTCLDY    52  31  44 NW17      29.95R
PHILIP         CLEAR     37  29  72 W9        29.91F
PINE RIDGE     PTCLDY    41  30  65 W8        30.02S
WINNER         FAIR      42  31  64 SW8       29.90S
$$

SDZ004>011-016>023-039-040-260800-
NORTHEAST SOUTH DAKOTA

CITY           SKY/WX    TMP DP  RH WIND       PRES   REMARKS
ABERDEEN       CLEAR     33  30  88 SW15      29.79F WCI  23
WATERTOWN      MOCLDY    31  29  92 SW13      29.80F WCI  21
SISSETON         N/A     35  32  88 SW12      29.80F WCI  27
$$

SDZ017-020-022-023-036>040-048>070-260800-
SOUTHEAST SOUTH DAKOTA

CITY           SKY/WX    TMP DP  RH WIND       PRES   REMARKS
SIOUX FALLS    MOCLDY    32  30  92 SW8       29.91F WCI  25
HURON          CLEAR     32  30  92 S13       29.84F WCI  22
CHAMBERLAIN    CLOUDY    33  29  85 W6        29.87F WCI  27
MITCHELL       PTCLDY    34  31  88 S10       29.88F WCI  26
YANKTON        CLOUDY    30  28  93 CALM      29.95F
$$

ABBREVIATIONS USED IN REMARKS
   TC - TEMPERATURE IN CELSIUS
  WCI - WIND CHILL INDEX
   HX - HEAT INDEX
  VSB - VISIBILITY




USA.gov is the U.S. government's official web portal to all federal, state and local government web resources and services.